Flag for U.S.A. Weather past 2 weeks in Lewiston, Idaho, U.S.A.

Now
85 °F

Sunny.


Feels Like: 82 °F
Forecast: 58 / 93 °F
Wind: 9 mph from Northeast

Location: Lewiston-Nez Perce County Airport

Current Time: Jul 28, 2015 at 5:55:12 PM

Latest Report: Jul 28, 2015 at 4:56 PM


Visibility: 10 mi

Pressure: 30.12 "Hg

Humidity: 17%

Dew point: 35 °F

Location of LewistonLocation

Historic Weather in Lewiston — Graph

°F

Lewiston temperature yesterday

Maximum temperature yesterday: 76 °F (at 1:56 PM)
Minimum temperature yesterday: 59 °F (at 5:56 AM)
Average temperature yesterday: 67 °F

Past Weeks' High & Low Weather Summary

 TemperatureHumidityPressure
High99 °F (Jul 20, 2:56 PM)84% (Jul 14, 4:56 AM)30.23 "Hg (Jul 14, 4:56 AM)
Low54 °F (Jul 28, 4:56 AM)13% (Jul 18, 4:56 PM)29.65 "Hg (Jul 21, 6:56 PM)
Average76 °F32%29.90 "Hg
* Reported Jul 13 4:56 PM — Jul 28 4:56 PM, Lewiston, Weather by CustomWeather, © 2015

Note: Actual official high and low records may vary slightly from our data, if they occured in-between our weather recording intervals... More about our weather records

Advertising

Lewiston weather history for previous 24 hours

 ConditionsComfort  
Time TempWeatherWind HumidityBarometerVisibility
4:56 PM
Tue, Jul 28
85 °FSunny.9 mph17%30.12 "Hg10 mi
3:56 PM84 °FSunny.9 mph17%30.13 "Hg10 mi
2:56 PM83 °FSunny.6 mph17%30.15 "Hg10 mi
1:56 PM81 °FSunny.No wind19%30.17 "Hg10 mi
12:56 PM78 °FSunny.6 mph27%30.18 "Hg10 mi
11:56 AM76 °FSunny.6 mph31%30.21 "Hg10 mi
10:56 AM72 °FSunny.5 mph37%30.22 "Hg10 mi
9:56 AM68 °FSunny.5 mph47%30.22 "Hg10 mi
8:56 AM65 °FSunny.3 mph52%30.23 "Hg10 mi
7:56 AM60 °FSunny.6 mph65%30.23 "Hg10 mi
6:56 AM57 °FSunny.7 mph72%30.22 "Hg10 mi
5:56 AM54 °FClear.6 mph80%30.20 "Hg10 mi
4:56 AM54 °FClear.5 mph80%30.19 "Hg10 mi
3:56 AM57 °FClear.5 mph72%30.17 "Hg10 mi
2:56 AM58 °FClear.8 mph70%30.15 "Hg10 mi
1:56 AM59 °FClear.10 mph64%30.14 "Hg10 mi
12:56 AM61 °FClear.13 mph56%30.12 "Hg10 mi
11:56 PM
Mon, Jul 27
63 °FPassing clouds.10 mph48%30.12 "Hg10 mi
10:56 PM66 °FPassing clouds.5 mph34%30.09 "Hg10 mi
9:56 PM68 °FPassing clouds.5 mph32%30.08 "Hg10 mi
8:56 PM71 °FSunny.7 mph29%30.06 "Hg10 mi
7:56 PM73 °FMore clouds than sun.10 mph27%30.05 "Hg10 mi
6:56 PM72 °FPartly sunny.9 mph31%30.05 "Hg10 mi
5:56 PM73 °FPartly sunny.5 mph30%30.04 "Hg10 mi
Weather by CustomWeather, © 2015

See weather overviewHow to use our weather pages